[[{"header":{"parameterUnit":"m.s-1","parameterCategory":1,"la1":30.2991,"la2":30.254,"lo1":-89.0895,"lo2":-89.0444,"dy":0.0017,"dx":0.0017,"nx":28,"ny":28,"refTime":"2025-08-14T09:00:00:Z","depth":0,"parameterNumber":2,"parameterNumberName":"U-component_of_WINDS"},"data":[0,0,0,0,0,0,0,0,0,0,0,0,0,0,0,0,0,0,0,0,0,0,0,0,0,0,0,0,0,0,0,0,0,0,0,0,0,0,0,0,0,0,0,0,0,0,0,0,0,0,0,0,0,0,0,0,0,0,1.2928,1.2928,0,1.2911,1.2911,1.2911,1.2903,1.2903,1.2903,1.2903,1.2887,1.2887,1.2886,0,0,0,0,0,0,0,0,0,0,0,0,0,1.2956,1.2956,1.2928,1.2928,1.2928,1.2911,1.2911,1.2911,1.2903,1.2903,1.2903,1.2903,1.2887,1.2887,1.2886,0,0,0,0,0,0,0,0,0,0,0,0,0,1.2942,1.2955,1.2928,1.2922,1.2921,1.2911,1.2911,1.2911,1.2903,1.2903,1.2903,1.2903,1.2888,1.2887,1.2886,1.2882,0,0,1.2884,1.2884,0,0,0,0,0,0,0,0,1.2943,1.2941,1.2923,1.2922,1.2921,1.2909,1.2915,1.2901,1.2903,1.291,1.2903,1.2903,1.2895,1.2893,1.289,1.2882,1.2881,1.2884,1.2884,1.2884,1.2884,0,0,0,0,0,0,0,1.2944,1.2942,1.2921,1.2922,1.2921,1.292,1.2918,1.2913,1.2902,1.2909,1.2908,1.2906,1.2894,1.2891,1.289,1.2881,1.2884,1.2884,1.2883,1.2883,1.2871,1.2871,0,0,0,0,0,0,1.2946,1.2943,1.2922,1.2921,1.2932,1.292,1.2918,1.2913,1.2902,1.2901,1.2906,1.2906,1.2892,1.2891,1.2889,1.2885,1.2884,1.2883,1.2883,1.2871,1.2871,1.2871,0,0,0,0,0,0,1.2946,1.2944,1.2923,1.2932,1.2929,1.2919,1.2914,1.2913,1.2909,1.29,1.2899,1.2905,1.2892,1.289,1.2885,1.2885,1.2883,1.2882,1.2871,1.2871,1.2871,1.2877,0,0,0,0,0,0,1.2947,1.2944,1.2942,1.2932,1.2928,1.2917,1.2914,1.2912,1.2908,1.2907,1.2898,1.2897,1.2892,1.2886,1.2884,1.2884,1.2882,1.2871,1.2871,1.2871,1.2877,1.2877,1.2878,0,0,0,0,0,1.2948,1.2944,1.2941,1.2939,1.2925,1.2917,1.2915,1.2909,1.2908,1.2906,1.2901,1.2897,1.2885,1.2885,1.2883,1.2883,1.2871,1.2871,1.2871,1.2876,1.2877,1.2878,0,0,0,0,0,0,1.2954,1.2942,1.294,1.2932,1.2926,1.2916,1.2913,1.291,1.2904,1.2904,1.2897,1.2895,1.289,1.2886,1.2886,1.288,1.2878,1.2877,1.2883,1.2883,1.2884,1.2885,1.2881,0,0,0,0,0,1.2954,1.2948,1.2939,1.2933,1.293,1.2922,1.2918,1.2914,1.2908,1.2905,1.2899,1.2894,1.2889,1.2886,1.2881,1.2876,1.2875,1.2875,1.2876,1.2876,1.2876,1.2876,1.2876,1.2871,1.2871,1.2871,0,0,1.2955,1.2948,1.2945,1.2934,1.2929,1.2924,1.292,1.2914,1.2911,1.2904,1.2899,1.2895,1.2888,1.2884,1.2882,1.288,1.2877,1.2876,1.2877,1.2876,1.2876,1.2876,1.2877,1.2871,1.2871,1.2871,0,0,1.2954,1.2948,1.2943,1.2938,1.293,1.2925,1.2924,1.2915,1.2912,1.2907,1.2903,1.2899,1.289,1.2886,1.2883,1.2883,1.288,1.2882,1.2884,1.2884,1.2884,1.2885,1.2886,1.2886,1.2882,1.2882,1.2882,0,1.2956,1.2948,1.2941,1.2936,1.2932,1.2927,1.2923,1.2918,1.2909,1.2908,1.2906,1.2896,1.2891,1.2887,1.2887,1.2884,1.2884,1.2883,1.2885,1.2885,1.2885,1.2886,1.2887,1.2882,1.2882,1.2882,1.2882,0,1.2951,1.2946,1.2943,1.2935,1.2931,1.2926,1.292,1.2917,1.2914,1.291,1.2906,1.29,1.2894,1.2893,1.2889,1.2889,1.2888,1.2886,1.2883,1.2886,1.2887,1.2887,1.2883,1.2882,1.2882,1.2882,0,0,1.2952,1.2942,1.2941,1.2938,1.293,1.2926,1.2923,1.2917,1.2915,1.291,1.2908,1.2901,1.29,1.2896,1.2893,1.2892,1.2894,1.289,1.289,1.2892,1.2895,1.2897,1.2898,1.2893,1.2893,1.2893,1.2896,0,1.2951,1.2943,1.2938,1.2933,1.2929,1.2924,1.2922,1.2917,1.2914,1.2911,1.2907,1.2903,1.29,1.2899,1.2898,1.2894,1.2895,1.2894,1.2892,1.2891,1.2894,1.2898,1.29,1.2903,1.2896,1.2896,1.2896,0,1.2948,1.2943,1.2938,1.2932,1.293,1.2927,1.2923,1.2919,1.2915,1.2913,1.291,1.2907,1.2904,1.2902,1.29,1.2899,1.2898,1.2896,1.2896,1.2896,1.2894,1.2899,1.2904,1.2905,1.2897,1.2897,1.2897,0,1.2951,1.2943,1.2939,1.2936,1.2929,1.2928,1.2925,1.2921,1.2918,1.2915,1.2914,1.291,1.2908,1.2906,1.2903,1.2901,1.2901,1.2899,1.29,1.2901,1.29,1.2901,1.2906,1.2899,1.2899,1.2899,1.2899,0,1.295,1.2947,1.294,1.2938,1.2935,1.293,1.2928,1.2925,1.2922,1.292,1.2916,1.2914,1.2909,1.2908,1.2905,1.2904,1.2903,1.2902,1.2902,1.2903,1.2903,1.2902,1.2902,1.2899,1.2899,1.2899,1.2899,0,1.2952,1.2947,1.2943,1.2938,1.2936,1.2935,1.293,1.2929,1.2926,1.2923,1.2923,1.2918,1.2916,1.2912,1.2909,1.2908,1.2908,1.2906,1.2909,1.2909,1.2911,1.2912,1.2917,1.2918,1.2909,1.2909,1.291,0,1.2952,1.295,1.2944,1.2943,1.294,1.2937,1.2935,1.2931,1.2929,1.2925,1.2925,1.2922,1.292,1.2918,1.2915,1.2913,1.2912,1.2914,1.2912,1.2914,1.2913,1.2914,1.2914,1.2915,1.2915,1.2915,1.2915,0,1.2953,1.2951,1.2948,1.2945,1.2943,1.294,1.2937,1.2936,1.2932,1.293,1.2928,1.2927,1.2924,1.2923,1.2921,1.2919,1.2917,1.2916,1.2916,1.2918,1.292,1.292,1.2912,1.2916,1.2916,1.2916,1.2916,1.2916,1.2955,1.2953,1.295,1.2947,1.2945,1.2943,1.2941,1.2939,1.2937,1.2934,1.2932,1.2931,1.2929,1.2926,1.2925,1.2924,1.2923,1.2923,1.2924,1.2924,1.2925,1.292,1.2924,1.2924,1.2924,1.2924,1.2924,0,1.2956,1.2954,1.2952,1.2948,1.2947,1.2945,1.2942,1.2941,1.294,1.2938,1.2937,1.2935,1.2934,1.2932,1.2931,1.2931,1.2931,1.2931,1.2932,1.2932,1.2926,1.2926,1.2932,1.2932,1.2932,1.2932,1.2932,1.2932,1.2957,1.2955,1.2953,1.2951,1.2949,1.2948,1.2947,1.2945,1.2944,1.2943,1.2942,1.294,1.2939,1.2938,1.2938,1.2937,1.2937,1.2939,1.2938,1.2933,1.2932,1.2931,1.2931,1.2939,1.2939,1.2944,1.2944,1.2944]},{"header":{"parameterUnit":"m.s-1","parameterCategory":1,"la1":30.2991,"la2":30.254,"lo1":-89.0895,"lo2":-89.0444,"dy":0.0017,"dx":0.0017,"nx":28,"ny":28,"refTime":"2025-08-14T09:00:00:Z","depth":0,"parameterNumber":3,"parameterNumberName":"V-component_of_WINDS"},"data":[0,0,0,0,0,0,0,0,0,0,0,0,0,0,0,0,0,0,0,0,0,0,0,0,0,0,0,0,0,0,0,0,0,0,0,0,0,0,0,0,0,0,0,0,0,0,0,0,0,0,0,0,0,0,0,0,0,0,0.6166,0.6165,0,0.6131,0.6131,0.613,0.6138,0.6139,0.614,0.614,0.6102,0.6101,0.6099,0,0,0,0,0,0,0,0,0,0,0,0,0,0.6237,0.6235,0.6166,0.6165,0.6165,0.6131,0.6131,0.613,0.6138,0.6139,0.614,0.6141,0.6103,0.6101,0.6099,0,0,0,0,0,0,0,0,0,0,0,0,0,0.6204,0.6235,0.6166,0.6165,0.6165,0.6131,0.6131,0.613,0.6138,0.6139,0.614,0.6141,0.6103,0.6101,0.6098,0.6063,0,0,0.6091,0.609,0,0,0,0,0,0,0,0,0.6206,0.6202,0.6166,0.6165,0.6164,0.614,0.6142,0.6107,0.6138,0.6148,0.614,0.6142,0.6114,0.611,0.6102,0.6061,0.6059,0.6091,0.6089,0.6088,0.6087,0,0,0,0,0,0,0,0.6208,0.6203,0.6152,0.6165,0.6164,0.6166,0.6162,0.6135,0.6126,0.6147,0.6148,0.6144,0.6114,0.6104,0.6101,0.6059,0.6091,0.6089,0.6087,0.6086,0.5987,0.5986,0,0,0,0,0,0,0.6211,0.6205,0.6153,0.6151,0.6188,0.6163,0.616,0.6147,0.6126,0.6124,0.6143,0.6144,0.6108,0.6104,0.6099,0.6056,0.6088,0.6086,0.6084,0.5988,0.5987,0.5985,0,0,0,0,0,0,0.6213,0.6207,0.6154,0.6178,0.6172,0.6161,0.6147,0.6146,0.6136,0.6123,0.6121,0.6135,0.6108,0.6103,0.6072,0.6055,0.6085,0.6082,0.5989,0.5988,0.5986,0.5969,0,0,0,0,0,0,0.6215,0.6207,0.6194,0.6178,0.617,0.6128,0.6146,0.6144,0.6132,0.6133,0.6115,0.6112,0.6109,0.6076,0.607,0.6052,0.6081,0.5991,0.5989,0.5987,0.5971,0.5967,0.5964,0,0,0,0,0,0.6217,0.619,0.6193,0.6187,0.6154,0.6127,0.6123,0.612,0.6131,0.6117,0.6108,0.6113,0.6058,0.6072,0.6066,0.6047,0.5992,0.5989,0.5987,0.5973,0.5968,0.5964,0,0,0,0,0,0,0.6204,0.6188,0.6191,0.6158,0.6144,0.6129,0.6111,0.6115,0.6096,0.6098,0.6095,0.609,0.6059,0.605,0.6066,0.6011,0.6026,0.6022,0.6018,0.6013,0.601,0.6012,0.6078,0,0,0,0,0,0.6197,0.6178,0.6165,0.6137,0.613,0.6122,0.611,0.6109,0.6094,0.6088,0.6077,0.6061,0.604,0.6026,0.6006,0.597,0.5966,0.5954,0.595,0.5947,0.5944,0.5923,0.5918,0.5977,0.5977,0.5977,0,0,0.6183,0.6172,0.616,0.6134,0.6123,0.6102,0.6117,0.6094,0.6078,0.6084,0.6054,0.6046,0.6028,0.5994,0.5979,0.5986,0.5926,0.5944,0.5942,0.594,0.592,0.5914,0.591,0.5975,0.5975,0.5976,0,0,0.6146,0.6136,0.6112,0.6101,0.6084,0.6079,0.6073,0.6057,0.6052,0.6022,0.6026,0.6007,0.5971,0.5958,0.5947,0.5905,0.5909,0.5899,0.5879,0.5859,0.5854,0.585,0.5835,0.583,0.5895,0.5895,0.5895,0,0.613,0.61,0.6098,0.6075,0.6064,0.6069,0.6044,0.6033,0.601,0.6001,0.601,0.5965,0.5953,0.5916,0.5906,0.5897,0.589,0.5901,0.5855,0.5851,0.5847,0.5833,0.5827,0.5894,0.5894,0.5895,0.5895,0,0.6081,0.6059,0.6042,0.602,0.6007,0.5982,0.5977,0.5963,0.5963,0.5957,0.5926,0.5913,0.589,0.5881,0.5881,0.5844,0.5849,0.5857,0.5871,0.5841,0.5827,0.5821,0.5893,0.5893,0.5893,0.5894,0,0,0.6034,0.6013,0.6006,0.5996,0.5979,0.5962,0.5938,0.5916,0.5904,0.5888,0.5867,0.5837,0.5844,0.5831,0.583,0.5813,0.578,0.5822,0.5822,0.5814,0.5738,0.5732,0.5725,0.5782,0.5781,0.5781,0.5739,0,0.5995,0.5953,0.5952,0.5913,0.5893,0.5898,0.5877,0.5863,0.5857,0.5839,0.5831,0.581,0.5821,0.5813,0.5796,0.5787,0.5764,0.5791,0.5762,0.5761,0.5766,0.5718,0.5712,0.5673,0.5734,0.5733,0.5732,0,0.5944,0.5927,0.5887,0.5873,0.5864,0.5845,0.5825,0.5808,0.5792,0.5789,0.5775,0.5776,0.575,0.5767,0.5731,0.5749,0.5737,0.5731,0.5729,0.5726,0.5744,0.5713,0.5661,0.5655,0.5724,0.5724,0.5725,0,0.5913,0.5881,0.5853,0.5844,0.5826,0.5813,0.5804,0.579,0.5777,0.576,0.5751,0.5731,0.5719,0.5703,0.5698,0.5711,0.5662,0.5678,0.5658,0.5658,0.5647,0.5648,0.5592,0.564,0.5641,0.5641,0.5641,0,0.5869,0.5844,0.5839,0.5821,0.5793,0.5791,0.5763,0.5756,0.5743,0.5724,0.5726,0.5708,0.5703,0.5683,0.5679,0.565,0.5645,0.5641,0.564,0.564,0.564,0.5632,0.5634,0.5639,0.564,0.564,0.564,0,0.583,0.5825,0.5794,0.578,0.5776,0.5756,0.5743,0.5726,0.5721,0.5696,0.569,0.5681,0.5658,0.5652,0.5624,0.5621,0.5587,0.5588,0.5592,0.5592,0.5571,0.5573,0.5508,0.5499,0.5554,0.5553,0.5553,0,0.5802,0.5783,0.5767,0.5755,0.5746,0.5726,0.5713,0.5711,0.5697,0.5678,0.5663,0.5641,0.5622,0.5586,0.5576,0.5555,0.5555,0.5534,0.5552,0.5553,0.5554,0.5555,0.5553,0.553,0.553,0.5529,0.5529,0,0.5753,0.5751,0.5733,0.5714,0.5699,0.5684,0.5669,0.5659,0.5654,0.5638,0.5616,0.5602,0.5574,0.5551,0.553,0.5521,0.5523,0.5523,0.5517,0.5517,0.552,0.5517,0.5582,0.5525,0.5525,0.5525,0.5526,0.5526,0.5718,0.5701,0.5687,0.5667,0.5656,0.5642,0.5626,0.5618,0.5599,0.5577,0.5576,0.5551,0.5536,0.5508,0.5497,0.5477,0.5483,0.5475,0.5472,0.547,0.5468,0.5524,0.5473,0.5473,0.5473,0.5473,0.5473,0,0.5668,0.566,0.5641,0.5621,0.5605,0.561,0.5594,0.558,0.5559,0.5544,0.5527,0.55,0.5479,0.5468,0.5446,0.5432,0.5432,0.5426,0.5427,0.5424,0.5464,0.5471,0.5426,0.5426,0.5426,0.5426,0.5426,0.5426,0.564,0.5613,0.561,0.5576,0.5568,0.5544,0.5534,0.5521,0.551,0.5481,0.5463,0.5456,0.5443,0.542,0.54,0.5398,0.5389,0.5382,0.538,0.5417,0.5422,0.5426,0.5433,0.538,0.538,0.5341,0.5341,0.5341]}]]